Rugby, ND

12:36 PM CST on December 08, 2019 (GMT -0600)
Rugby Municipal

Weather History for KRUG - October, 2019

Change the Weather History Date:

Monday, October 28, 2019

  Actual Average Record
Temperature  
Mean Temperature 24 °F -  
Max Temperature 32 °F 48 °F 68 °F (1977)
Min Temperature 15 °F 25 °F 2 °F (1984)
Degree Days  
Heating Degree Days 42    
Moisture  
Dew Point 14 °F    
Average Humidity 74    
Maximum Humidity 93    
Minimum Humidity 51    
Precipitation  
Precipitation 0.00 in - - ()
Sea Level Pressure  
Sea Level Pressure 29.94 in    
Wind  
Wind Speed 15 mph (WSW)    
Max Wind Speed 25 mph    
Max Gust Speed 33 mph    
Visibility 10 miles    
Events Snow    
Averages and records for this station are not official NWS values.
T = Trace of Precipitation, MM = Missing Value Source: NWS Daily Summary

Daily Weather History Graph

Daily Weather History Graph

Search for Another Location

Airport or City:

Astronomy

Oct. 28, 2019 Rise Set
Actual Time 8:19 AM CDT 6:27 PM CDT
Civil Twilight 7:46 AM CDT 6:59 PM CDT
Nautical Twilight 7:10 AM CDT 7:36 PM CDT
Astronomical Twilight 6:34 AM CDT 8:12 PM CDT
Moon 8:41 AM CDT (10/28) 7:12 PM CDT (10/28)
Length of Visible Light 11h 12m
Length of Day
10h 08m
New Moon, 0% of the Moon is Illuminated
Oct 28
New Moon
Nov 4
First Quarter
Nov 12
Full
Nov 19
Last Quarter
Nov 26
New

Hourly Weather History & Observations

Time (CDT) Temp. Windchill Dew Point Humidity Pressure Visibility Wind Dir Wind Speed Gust Speed Precip Events Conditions
12:15 AM 21.2 °F 8.3 °F 12.2 °F 68% 30.03 in 10.0 mi WNW 13.8 mph 23.0 mph N/A   Overcast
12:35 AM 21.2 °F 7.8 °F 12.2 °F 68% 30.03 in 10.0 mi WNW 15.0 mph 21.9 mph N/A   Overcast
12:55 AM 21.2 °F 7.8 °F 12.2 °F 68% 30.02 in 10.0 mi WNW 15.0 mph - N/A   Overcast
1:15 AM 21.2 °F 7.3 °F 14.0 °F 74% 30.02 in 10.0 mi West 16.1 mph - N/A   Overcast
1:35 AM 21.2 °F 8.3 °F 15.8 °F 80% 30.01 in 9.0 mi West 13.8 mph 19.6 mph N/A   Overcast
1:55 AM 21.2 °F 7.3 °F 14.0 °F 74% 30.00 in 10.0 mi West 16.1 mph - N/A   Overcast
2:15 AM 21.2 °F 8.9 °F 12.2 °F 68% 30.00 in 10.0 mi West 12.7 mph 20.7 mph N/A Snow Light Snow
2:55 AM 21.2 °F 7.3 °F 14.0 °F 74% 29.98 in 10.0 mi WSW 16.1 mph - N/A   Overcast
3:15 AM 21.2 °F 8.9 °F 14.0 °F 74% 29.98 in 10.0 mi WSW 12.7 mph - N/A Snow Light Snow
3:35 AM 21.2 °F 8.3 °F 14.0 °F 74% 29.97 in 10.0 mi WSW 13.8 mph 20.7 mph N/A Snow Light Snow
3:55 AM 21.2 °F 8.3 °F 14.0 °F 74% 29.96 in 10.0 mi WSW 13.8 mph 21.9 mph N/A   Unknown
4:15 AM 21.2 °F 8.3 °F 15.8 °F 80% 29.95 in 9.0 mi WSW 13.8 mph - N/A Snow Light Snow
4:35 AM 21.2 °F 9.5 °F 15.8 °F 80% 29.95 in 10.0 mi WSW 11.5 mph - N/A   Overcast
4:55 AM 21.2 °F 10.1 °F 14.0 °F 74% 29.94 in 10.0 mi SW 10.4 mph - N/A   Unknown
5:15 AM 19.4 °F 7.9 °F 14.0 °F 80% 29.93 in 10.0 mi SW 10.4 mph - N/A   Unknown
5:35 AM 17.6 °F 5.7 °F 14.0 °F 86% 29.93 in 10.0 mi SW 10.4 mph - N/A   Unknown
5:55 AM 17.6 °F 5.7 °F 12.2 °F 79% 29.92 in 10.0 mi SW 10.4 mph - N/A   Mostly Cloudy
6:15 AM 15.8 °F 4.2 °F 12.2 °F 86% 29.92 in 10.0 mi SSW 9.2 mph - N/A   Partly Cloudy
6:35 AM 15.8 °F 4.2 °F 12.2 °F 86% 29.91 in 10.0 mi SSW 9.2 mph - N/A   Clear
6:55 AM 15.8 °F 4.2 °F 12.2 °F 86% 29.90 in 10.0 mi SSW 9.2 mph - N/A   Clear
7:15 AM 15.8 °F 5.1 °F 12.2 °F 86% 29.90 in 10.0 mi SSW 8.1 mph - N/A   Clear
7:35 AM 15.8 °F 2.1 °F 12.2 °F 86% 29.89 in 10.0 mi SSW 12.7 mph - N/A   Clear
7:55 AM 15.8 °F 1.4 °F 14.0 °F 93% 29.89 in 10.0 mi SSW 13.8 mph - N/A   Clear
8:15 AM 15.8 °F 2.7 °F 12.2 °F 86% 29.88 in 10.0 mi SSW 11.5 mph - N/A   Clear
8:35 AM 15.8 °F 2.1 °F 12.2 °F 86% 29.88 in 10.0 mi SSW 12.7 mph - N/A   Clear
8:55 AM 17.6 °F 3.7 °F 12.2 °F 79% 29.87 in 10.0 mi SSW 13.8 mph - N/A   Clear
9:15 AM 17.6 °F 5.0 °F 14.0 °F 86% 29.87 in 10.0 mi SSW 11.5 mph - N/A   Clear
9:35 AM 19.4 °F 7.2 °F 14.0 °F 80% 29.87 in 10.0 mi SSW 11.5 mph 18.4 mph N/A   Clear
9:55 AM 19.4 °F 6.6 °F 15.8 °F 86% 29.87 in 10.0 mi SSW 12.7 mph - N/A   Mostly Cloudy
10:15 AM 21.2 °F 7.8 °F 15.8 °F 80% 29.87 in 10.0 mi SSW 15.0 mph - N/A   Overcast
10:35 AM 23.0 °F 10.1 °F 17.6 °F 80% 29.86 in 10.0 mi SSW 15.0 mph - N/A   Overcast
10:55 AM 23.0 °F 11.1 °F 19.4 °F 86% 29.86 in 2.5 mi SSW 12.7 mph - N/A   Overcast
12:55 PM 30.2 °F 19.8 °F 23.0 °F 75% 29.85 in 10.0 mi West 13.8 mph 20.7 mph N/A   Overcast
1:15 PM 30.2 °F 18.1 °F 23.0 °F 75% 29.85 in 10.0 mi West 18.4 mph - N/A   Overcast
1:35 PM 32.0 °F 19.5 °F 21.2 °F 64% 29.86 in 10.0 mi West 21.9 mph - N/A   Mostly Cloudy
1:55 PM 32.0 °F 20.5 °F 19.4 °F 60% 29.86 in 10.0 mi West 18.4 mph 24.2 mph N/A   Mostly Cloudy
2:15 PM 32.0 °F 19.8 °F 19.4 °F 60% 29.86 in 10.0 mi West 20.7 mph - N/A   Overcast
2:35 PM 32.0 °F 18.9 °F 17.6 °F 55% 29.86 in 10.0 mi West 24.2 mph 32.2 mph N/A   Scattered Clouds
2:55 PM 30.2 °F 17.1 °F 15.8 °F 55% 29.87 in 10.0 mi WNW 21.9 mph 29.9 mph N/A   Scattered Clouds
3:15 PM 30.2 °F 17.4 °F 15.8 °F 55% 29.88 in 10.0 mi West 20.7 mph 28.8 mph N/A   Mostly Cloudy
3:35 PM 30.2 °F 17.4 °F 14.0 °F 51% 29.89 in 10.0 mi West 20.7 mph 29.9 mph N/A   Mostly Cloudy
3:55 PM 28.4 °F 14.4 °F 14.0 °F 55% 29.90 in 10.0 mi West 23.0 mph 33.4 mph N/A   Mostly Cloudy
4:35 PM 28.4 °F 14.1 °F 12.2 °F 51% 29.91 in 10.0 mi WNW 24.2 mph 31.1 mph N/A   Mostly Cloudy
4:55 PM 28.4 °F 13.8 °F 12.2 °F 51% 29.92 in 10.0 mi WNW 25.3 mph 32.2 mph N/A   Overcast
5:15 PM 28.4 °F 13.8 °F 12.2 °F 51% 29.93 in 10.0 mi WNW 25.3 mph 33.4 mph N/A   Overcast
5:35 PM 24.8 °F 10.3 °F 12.2 °F 59% 29.94 in 10.0 mi West 20.7 mph 31.1 mph N/A   Scattered Clouds
5:55 PM 24.8 °F 9.3 °F 12.2 °F 59% 29.95 in 10.0 mi WNW 24.2 mph 31.1 mph N/A   Scattered Clouds
6:15 PM 23.0 °F 8.7 °F 12.2 °F 63% 29.96 in 10.0 mi WNW 18.4 mph 24.2 mph N/A   Scattered Clouds
6:35 PM 24.8 °F 11.9 °F 12.2 °F 59% 29.97 in 10.0 mi WNW 16.1 mph 24.2 mph N/A   Mostly Cloudy
6:55 PM 23.0 °F 10.1 °F 14.0 °F 68% 29.98 in 10.0 mi West 15.0 mph 24.2 mph N/A   Overcast
7:15 PM 23.0 °F 9.2 °F 14.0 °F 68% 29.99 in 10.0 mi WNW 17.3 mph 24.2 mph N/A   Overcast
7:35 PM 23.0 °F 8.3 °F 14.0 °F 68% 30.00 in 10.0 mi WNW 19.6 mph 29.9 mph N/A   Unknown
8:15 PM 21.2 °F 7.8 °F 14.0 °F 74% 30.02 in 10.0 mi West 15.0 mph 21.9 mph N/A   Overcast
8:35 PM 21.2 °F 7.3 °F 14.0 °F 74% 30.02 in 10.0 mi West 16.1 mph - N/A   Overcast
8:55 PM 19.4 °F 6.0 °F 14.0 °F 80% 30.02 in 10.0 mi West 13.8 mph - N/A   Mostly Cloudy
9:15 PM 19.4 °F 6.6 °F 12.2 °F 74% 30.02 in 10.0 mi West 12.7 mph - N/A   Unknown
9:55 PM 17.6 °F 5.0 °F 12.2 °F 79% 30.04 in 10.0 mi West 11.5 mph - N/A   Mostly Cloudy
10:15 PM 17.6 °F 5.0 °F 12.2 °F 79% 30.04 in 10.0 mi West 11.5 mph - N/A   Partly Cloudy
10:35 PM 17.6 °F 5.0 °F 12.2 °F 79% 30.05 in 10.0 mi West 11.5 mph - N/A   Scattered Clouds
10:55 PM 17.6 °F 5.7 °F 14.0 °F 86% 30.05 in 10.0 mi West 10.4 mph - N/A   Mostly Cloudy
11:15 PM 15.8 °F 3.4 °F 14.0 °F 93% 30.05 in 10.0 mi West 10.4 mph - N/A   Partly Cloudy
11:35 PM 17.6 °F 3.7 °F 14.0 °F 86% 30.06 in 10.0 mi West 13.8 mph - N/A   Clear
11:55 PM 19.4 °F 5.0 °F 15.8 °F 86% 30.06 in 10.0 mi West 16.1 mph - N/A   Mostly Cloudy